Regional Weather Roundup
Issued by NWS Cleveland, OH

Current Version | Previous Version | Text Only | Print | Product List | Glossary On
Versions: 1 2 3 4 5 6 7 8 9 10 11 12 13 14 15 16 17 18 19 20 21 22 23 24 25 26 27 28 29 30 31 32 33 34 35 36 37 38 39 40 41 42 43 44 45 46 47 48 49 50
000 ASUS41 KCLE 062212 RWRCLE OHIO REGIONAL WEATHER ROUNDUP NATIONAL WEATHER SERVICE WILMINGTON, OH 600 PM EDT FRI MAY 06 2016 NOTE: "FAIR" INDICATES FEW OR NO CLOUDS BELOW 12,000 FEET WITH NO SIGNIFICANT WEATHER AND/OR OBSTRUCTIONS TO VISIBILITY. OHZ001>008-015>018-024>027-034-035-043-044-062300- NORTHWEST OHIO CITY SKY/WX TMP DP RH WIND PRES REMARKS DEFIANCE FAIR 72 35 25 NW7 29.86F FINDLAY FAIR 70 39 32 W12 29.85F TOLEDO EXPRESS FAIR 72 38 29 NW7 29.84F TOLEDO EXEC FAIR 71 41 33 NW8 29.84F LIMA FAIR 68 43 40 W10 29.87F $$ OHZ009>014-019>023-028>033-038-089-062300- NORTHEAST OHIO CITY SKY/WX TMP DP RH WIND PRES REMARKS CLE-HOPKINS FAIR 67 40 37 NW14G22 29.85F CLE-LAKEFRONT FAIR 58 49 72 W12 29.83S CUY CO. ARPT PTSUNNY 66 45 45 N9 29.84S LORAIN-ELYRIA FAIR 65 38 36 NW13 29.85F ASHTABULA FAIR 63 32 31 NE10G17 29.83S AKRON-CANTON FAIR 65 36 34 N20G25 29.81S WOOSTER FAIR 65 40 39 N17 29.84S MANSFIELD FAIR 65 40 39 NW17 29.85F YOUNGSTOWN PTSUNNY 64 30 27 N24G31 29.80R $$ OHZ042-051>053-060>062-070>072-077>081-062300- SOUTHWEST OHIO CITY SKY/WX TMP DP RH WIND PRES REMARKS CINC-COVINGTON FAIR 71 41 33 NW9G20 29.89F CINC-LUNKEN FAIR 71 43 36 NW9G18 29.88F HAMILTON FAIR 70 43 37 NW16 29.89F DAYTON FAIR 68 42 38 NW12 29.88F WRIGHT-PAT AFB MOSUNNY 70 41 35 N12 29.87F DAYTON GENERAL FAIR 69 38 32 NW13 29.87F WILMINGTON FAIR 68 41 37 N15 29.87F $$ OHZ036-037-039>041-045>050-054>059-063>069-073>076-082>088-062300- CENTRAL AND SOUTHEAST OHIO CITY SKY/WX TMP DP RH WIND PRES REMARKS COLUMBUS FAIR 66 39 37 NW14G22 29.84S OSU AIRPORT FAIR 67 40 37 NW15G24 29.85S BOLTON FIELD MOSUNNY 66 43 42 N15 29.86S RICKENBACK AFB FAIR 67 40 37 N17G24 29.84S NEWARK FAIR 68 38 33 N14G22 29.83S MARION FAIR 67 38 34 N13 29.86F LANCASTER FAIR 69 38 32 N13G21 29.84F ZANESVILLE FAIR 69 38 32 NW16 29.81S NEW PHILLY FAIR 67 35 30 N12G22 29.80S $$

USA.gov is the U.S. government's official web portal to all federal, state and local government web resources and services.